Harlan, KY

8:36 PM EST on November 15, 2019 (GMT -0500)
Harlan

Weather History for KI35 - September, 2019

Change the Weather History Date:

Friday, September 20, 2019

  Actual Average (WUND) Record (WUND)
Temperature  
Mean Temperature 72 °F -  
Max Temperature 82 °F - - (-1)
Min Temperature 61 °F - - (-1)
Cooling Degree Days 6    
Growing Degree Days 22 (Base 50)    
Moisture  
Dew Point 59 °F    
Average Humidity 69    
Maximum Humidity 96    
Minimum Humidity 48    
Precipitation  
Precipitation 0.00 in - - ()
Sea Level Pressure  
Sea Level Pressure 30.27 in    
Wind  
Wind Speed 1 mph ()    
Max Wind Speed 10 mph    
Max Gust Speed -    
Visibility 10.0 miles    
Events      
Averages and records for this station are not official NWS values.
T = Trace of Precipitation, MM = Missing Value Source: Averaged Metar Reports

Daily Weather History Graph

Daily Weather History Graph

Search for Another Location

Airport or City:

Astronomy

Sep. 20, 2019 Rise Set
Actual Time 7:19 AM EDT 7:33 PM EDT
Civil Twilight 6:53 AM EDT 7:59 PM EDT
Nautical Twilight 6:23 AM EDT 8:29 PM EDT
Astronomical Twilight 5:52 AM EDT 9:00 PM EDT
Moon 11:31 PM EDT (9/20) 1:14 PM EDT (9/20)
Length of Visible Light 13h 05m
Length of Day
12h 14m
Waning Gibbous, 65% of the Moon is Illuminated
Sep 20
Waning Gibbous
Sep 21
Last Quarter
Sep 28
New
Oct 5
First Quarter
Oct 13
Full

Hourly Weather History & Observations

Time (EDT) Temp. Heat Index Dew Point Humidity Pressure Visibility Wind Dir Wind Speed Gust Speed Precip Events Conditions
12:15 AM 66.2 °F - 55.9 °F 69% 30.24 in 10.0 mi East 4.6 mph - N/A   Overcast
12:35 AM 65.8 °F - 55.9 °F 70% 30.24 in 10.0 mi Calm Calm - N/A   Scattered Clouds
1:15 AM 64.6 °F - 55.8 °F 73% 30.24 in 10.0 mi Calm Calm - N/A   Clear
1:35 AM 64.4 °F - 55.8 °F 73% 30.25 in 10.0 mi Calm Calm - N/A   Clear
1:55 AM 63.7 °F - 55.8 °F 75% 30.25 in 10.0 mi Calm Calm - N/A   Clear
2:15 AM 63.5 °F - 55.8 °F 76% 30.25 in 10.0 mi Calm Calm - N/A   Clear
2:35 AM 63.9 °F - 55.6 °F 74% 30.25 in 10.0 mi Calm Calm - N/A   Clear
2:55 AM 63.5 °F - 55.6 °F 75% 30.25 in 10.0 mi Calm Calm - N/A   Clear
3:15 AM 63.7 °F - 55.4 °F 74% 30.26 in 10.0 mi Calm Calm - N/A   Clear
3:35 AM 63.1 °F - 55.4 °F 76% 30.26 in 10.0 mi East 3.5 mph - N/A   Mostly Cloudy
3:55 AM 63.9 °F - 55.4 °F 74% 30.26 in 10.0 mi ESE 3.5 mph - N/A   Overcast
4:15 AM 63.3 °F - 55.4 °F 75% 30.26 in 10.0 mi Calm Calm - N/A   Mostly Cloudy
4:35 AM 62.8 °F - 55.6 °F 77% 30.26 in 10.0 mi Calm Calm - N/A   Mostly Cloudy
4:55 AM 62.2 °F - 55.8 °F 79% 30.26 in 10.0 mi Calm Calm - N/A   Overcast
5:15 AM 62.6 °F - 55.4 °F 77% 30.27 in 10.0 mi NE 3.5 mph - N/A   Mostly Cloudy
5:35 AM 61.3 °F - 55.6 °F 81% 30.27 in 10.0 mi ENE 3.5 mph - N/A   Clear
6:15 AM 61.0 °F - 55.6 °F 82% 30.28 in 10.0 mi NE 3.5 mph - N/A   Mostly Cloudy
6:35 AM 61.3 °F - 55.6 °F 81% 30.28 in 10.0 mi Calm Calm - N/A   Overcast
6:55 AM 62.4 °F - 55.4 °F 78% 30.28 in 10.0 mi Calm Calm - N/A   Overcast
7:15 AM 61.7 °F - 56.3 °F 82% 30.29 in 10.0 mi Calm Calm - N/A   Overcast
7:35 AM 62.1 °F - 56.1 °F 81% 30.29 in 10.0 mi East 3.5 mph - N/A   Overcast
7:55 AM 62.6 °F - 56.3 °F 80% 30.30 in 10.0 mi Calm Calm - N/A   Overcast
8:15 AM 62.8 °F - 56.3 °F 79% 30.30 in 10.0 mi Calm Calm - N/A   Overcast
8:35 AM 63.0 °F - 55.9 °F 78% 30.30 in 10.0 mi Calm Calm - N/A   Overcast
8:55 AM 63.5 °F - 56.7 °F 78% 30.31 in 10.0 mi Calm Calm - N/A   Overcast
9:15 AM 64.6 °F - 56.5 °F 75% 30.31 in 10.0 mi Calm Calm - N/A   Overcast
9:35 AM 64.9 °F - 56.7 °F 74% 30.32 in 10.0 mi Calm Calm - N/A   Overcast
9:55 AM 66.0 °F - 56.3 °F 71% 30.32 in 10.0 mi Calm Calm - N/A   Overcast
10:15 AM 65.7 °F - 55.9 °F 71% 30.32 in 10.0 mi Calm Calm - N/A   Scattered Clouds
10:35 AM 67.5 °F - 55.9 °F 66% 30.32 in 10.0 mi Calm Calm - N/A   Mostly Cloudy
10:55 AM 68.5 °F - 57.6 °F 68% 30.32 in 10.0 mi Calm Calm - N/A   Overcast
11:15 AM 68.9 °F - 57.0 °F 66% 30.32 in 10.0 mi Calm Calm - N/A   Overcast
11:35 AM 70.9 °F - 57.7 °F 63% 30.32 in 10.0 mi Calm Calm - N/A   Overcast
11:55 AM 70.5 °F - 57.7 °F 64% 30.32 in 10.0 mi Calm Calm - N/A   Overcast
12:15 PM 72.0 °F - 58.1 °F 62% 30.32 in 10.0 mi NW 3.5 mph - N/A   Scattered Clouds
12:35 PM 74.1 °F - 58.5 °F 58% 30.31 in 10.0 mi Calm Calm - N/A   Clear
12:55 PM 76.1 °F - 59.0 °F 55% 30.31 in 10.0 mi Calm Calm - N/A   Clear
1:15 PM 76.5 °F - 59.2 °F 55% 30.30 in 10.0 mi South 6.9 mph - N/A   Clear
1:35 PM 78.1 °F - 59.5 °F 53% 30.29 in 10.0 mi SW 3.5 mph - N/A   Mostly Cloudy
1:55 PM 79.7 °F - 59.7 °F 50% 30.28 in 10.0 mi West 10.4 mph - N/A   Scattered Clouds
2:15 PM 79.3 °F - 59.4 °F 50% 30.27 in 10.0 mi SW 5.8 mph - N/A   Clear
2:35 PM 79.5 °F - 59.7 °F 51% 30.26 in 10.0 mi South 5.8 mph - N/A   Clear
2:55 PM 80.2 °F 81.0 °F 59.9 °F 50% 30.25 in 10.0 mi SSW 4.6 mph - N/A   Clear
3:15 PM 80.6 °F 81.2 °F 59.9 °F 49% 30.25 in 10.0 mi West 6.9 mph - N/A   Clear
3:35 PM 80.6 °F 81.2 °F 60.1 °F 49% 30.25 in 10.0 mi SSW 3.5 mph - N/A   Clear
3:55 PM 81.7 °F 82.2 °F 60.4 °F 48% 30.24 in 10.0 mi West 4.6 mph - N/A   Clear
4:15 PM 82.0 °F 82.5 °F 60.8 °F 48% 30.24 in 10.0 mi WNW 3.5 mph - N/A   Scattered Clouds
4:35 PM 82.9 °F 83.7 °F 61.9 °F 49% 30.24 in 10.0 mi Calm Calm - N/A   Clear
4:55 PM 81.5 °F 82.0 °F 60.1 °F 48% 30.24 in 10.0 mi West 5.8 mph - N/A   Clear
5:15 PM 81.9 °F 82.3 °F 60.3 °F 48% 30.24 in 10.0 mi West 3.5 mph - N/A   Clear
5:35 PM 82.2 °F 82.7 °F 60.4 °F 48% 30.24 in 10.0 mi Calm Calm - N/A   Clear
5:55 PM 81.7 °F 82.3 °F 61.0 °F 49% 30.24 in 10.0 mi Calm Calm - N/A   Clear
6:15 PM 81.0 °F 81.8 °F 61.2 °F 51% 30.23 in 10.0 mi West 3.5 mph - N/A   Clear
6:35 PM 81.3 °F 82.1 °F 60.8 °F 50% 30.23 in 10.0 mi West 3.5 mph - N/A   Clear
6:55 PM 80.2 °F 81.2 °F 61.2 °F 52% 30.24 in 10.0 mi West 5.8 mph - N/A   Clear
7:15 PM 79.2 °F - 61.7 °F 55% 30.24 in 10.0 mi Calm Calm - N/A   Clear
7:35 PM 75.6 °F - 62.2 °F 63% 30.24 in 10.0 mi Calm Calm - N/A   Clear
7:55 PM 74.3 °F - 62.1 °F 65% 30.24 in 10.0 mi Calm Calm - N/A   Clear
8:15 PM 71.8 °F - 62.2 °F 72% 30.25 in 10.0 mi Calm Calm - N/A   Clear
8:35 PM 70.5 °F - 62.8 °F 76% 30.25 in 10.0 mi Calm Calm - N/A   Clear
8:55 PM 69.8 °F - 62.6 °F 78% 30.26 in 10.0 mi Calm Calm - N/A   Clear
9:15 PM 68.4 °F - 62.8 °F 82% 30.27 in 10.0 mi Calm Calm - N/A   Clear
9:35 PM 67.8 °F - 63.0 °F 84% 30.27 in 10.0 mi Calm Calm - N/A   Clear
9:55 PM 67.1 °F - 63.1 °F 87% 30.28 in 10.0 mi Calm Calm - N/A   Clear
10:15 PM 66.4 °F - 63.1 °F 89% 30.28 in 10.0 mi Calm Calm - N/A   Clear
10:35 PM 65.5 °F - 63.1 °F 92% 30.29 in 10.0 mi Calm Calm - N/A   Clear
10:55 PM 65.5 °F - 63.0 °F 92% 30.29 in 10.0 mi Calm Calm - N/A   Clear
11:15 PM 64.6 °F - 63.0 °F 94% 30.29 in 10.0 mi Calm Calm - N/A   Clear
11:35 PM 64.4 °F - 62.8 °F 94% 30.29 in 10.0 mi Calm Calm - N/A   Clear
11:55 PM 63.7 °F - 62.6 °F 96% 30.30 in 10.0 mi Calm Calm - N/A   Clear